Location: Biharia
(46.4333°N, 22.8000°E)
Time: 21:43:24
(UTC+00:00)

Cosmos 1726 - Pass Details

Date: 16 October 2021
Orbit: 479 x 493 km, 82.5° (Epoch: 29 November)

Event Time Altitude Azimuth Distance (km) Brightness Sun altitude
Rises 16:18:03 0° 200° (SSW) 2,525 6.1 -7.3°
Reaches altitude 10° 16:20:11 10° 206° (SSW) 1,651 5.2 -7.6°
Maximum altitude 16:23:42 49° 282° (WNW) 626 3.1 -8.2°
Drops below altitude 10° 16:27:15 10° 359° (N) 1,668 4.8 -8.8°
Sets 16:29:24 0° 5° (N) 2,554 5.6 -9.2°
